[Iaude] MPEC G170: 2024 GE4 [a=1.39,e=0.33,i=6.3,H=24.6]

mpec at cfa.harvard.edu mpec at cfa.harvard.edu
Fri Apr 12 02:47:48 EDT 2024


M.P.E.C. 2024-G170                               Issued 2024 April 12, 06:46 UT

     The Minor Planet Electronic Circulars contain information on unusual
         minor planets, routine data on comets and natural satellites,
         and occasional editorial announcements.  They are published
    on behalf of Division F of the International Astronomical Union by the
          Minor Planet Center, Smithsonian Astrophysical Observatory,
                          Cambridge, MA 02138, U.S.A.
			  
             Prepared using the Tamkin Foundation Computer Network

                              MPC at CFA.HARVARD.EDU
            URL https://www.minorplanetcenter.net/    ISSN 1523-6714

                                    2024 GE4                                    


Observations:
     K24G04E*1C2024 04 10.44911816 36 56.506+15 47 52.73         21.36GVEG170G96
     K24G04E 1C2024 04 10.45430916 36 59.785+15 47 49.31         21.40GVEG170G96
     K24G04E 1C2024 04 10.45948016 37 03.065+15 47 46.10         21.39GVEG170G96
     K24G04E 1C2024 04 10.46465416 37 06.316+15 47 43.01         20.50GVEG170G96
     K24G04E KC2024 04 10.49024416 37 22.494+15 47 26.95         21.44GVEG170V06
     K24G04E KC2024 04 10.49124016 37 23.135+15 47 26.38         21.31GVEG170V06
     K24G04E KC2024 04 10.49223616 37 23.754+15 47 25.76         21.15GVEG170V06
     K24G04E KC2024 04 11.34401816 47 17.890+15 37 22.10               VEG170I52
     K24G04E KC2024 04 11.34623216 47 19.340+15 37 20.40               VEG170I52
     K24G04E KC2024 04 11.34844916 47 20.870+15 37 19.40         21.45GVEG170I52
     K24G04E KC2024 04 11.35066616 47 22.360+15 37 17.30         21.54GVEG170I52
     K24G04E KB2024 04 11.40654 16 47 59.042+15 36 26.64         20.9 GVEG170734
     K24G04E KB2024 04 11.42025 16 48 08.398+15 36 14.62         21.1 GVEG170734
     K24G04E  C2024 04 11.47910616 48 49.725+15 35 33.91         20.9 GVEG170H01
     K24G04E  C2024 04 11.48639716 48 54.730+15 35 27.56         20.5 GVEG170H01
     K24G04E  C2024 04 11.49043016 48 57.485+15 35 23.98         21.4 GVEG170H01
     K24G04E KB2024 04 12.07821 16 56 14.55 +15 26 06.8          20.9 GVEG170204
     K24G04E 1C2024 04 12.07971 16 56 15.26 +15 25 57.7          21.0 VXEG170033
     K24G04E 1C2024 04 12.08121 16 56 16.36 +15 25 56.4          21.3 VXEG170033
     K24G04E 1C2024 04 12.08271 16 56 17.46 +15 25 54.8          21.5 VXEG170033
     K24G04E KB2024 04 12.11341 16 56 40.08 +15 25 32.1                VEG170204

Observer details:
033 Karl Schwarzschild Observatory, Tautenburg.  Observers S. Melnikov, C.
    Hogner, F. Ludwig, M. Hartmann, B. Stecklum.  Measurer B. Stecklum.
    1.34-m f/3 Schmidt + CCD.
204 Schiaparelli Observatory.  Observer L. Buzzi.  0.84-m f/3.5 reflector +
    CMO.
734 Farpoint Observatory, Eskridge.  Observers D. Cromer, G. Hug, D. Goodin,
    R. Valentine, P. Lessig.  Measurer G. Hug.  0.69-m f/3.54 reflector + CMO.
G96 Mt. Lemmon Survey.  Observer A. D. Grauer.  Measurers T. Beuden, V. F.
    Carvajal, D. Fay, J. B. Fazekas, D. C. Fuls, A. R. Gibbs, A. D. Grauer, H.
    Groeller, J. K. Hogan, R. A. Kowalski, S. M. Larson, G. J. Leonard, D.
    Rankin, R. L. Seaman, F. C. Shelly, K. W. Wierzchos.  1.5-m reflector +
    10K CCD.
H01 Magdalena Ridge Observatory, Socorro.  Observers W. H. Ryan, E. V. Ryan.
    Measurer W. H. Ryan.  2.4-m f/8.9 Ritchey-Chretien + CCD.
I52 Steward Observatory, Mt. Lemmon Station.  Observers V. F. Carvajal, G. J.
    Leonard.  Measurers T. Beuden, V. F. Carvajal, D. Fay, J. B. Fazekas, D.
    C. Fuls, A. R. Gibbs, A. D. Grauer, H. Groeller, J. K. Hogan, R. A.
    Kowalski, S. M. Larson, G. J. Leonard, D. Rankin, R. L. Seaman, F. C.
    Shelly, K. W. Wierzchos.  1.0-m prime focus + CCD.
V06 Catalina Sky Survey-Kuiper.  Observer G. J. Leonard.  Measurers T. Beuden,
    V. F. Carvajal, D. Fay, J. B. Fazekas, D. C. Fuls, A. R. Gibbs, A. D.
    Grauer, H. Groeller, J. K. Hogan, R. A. Kowalski, S. M. Larson, G. J.
    Leonard, D. Rankin, R. L. Seaman, F. C. Shelly, K. W. Wierzchos.  1.55-m
    reflector + 1K CCD.

Orbital elements:
2024 GE4                                                 Earth MOID = 0.0254 AU
Epoch 2024 Mar. 31.0 TT = JDT 2460400.5                 MPC                     
M 323.56909              (2000.0)            P               Q                  
n   0.60141992     Peri.  209.74397     -0.15525444     +0.98415733             
a   1.3900087      Node    51.45969     -0.88338457     -0.09951638             
e   0.3284056      Incl.    6.28430     -0.44218520     -0.14673390             
P   1.64           H   24.68          G   0.15           U   8                  
Residuals in seconds of arc
240410 G96  0.1-  0.2+    240411 I52  0.5+  0.3-    240411 H01  0.1+  0.0
240410 G96  0.0   0.1-    240411 I52  0.4-  0.5-    240411 H01  0.1-  0.0
240410 G96  0.2+  0.1-    240411 I52  0.3-  0.1+    240412 204  0.1-  0.2+
240410 G96  0.0   0.0     240411 I52  0.7-  0.4-    240412 033  0.3-  0.0
240410 V06  0.2-  0.0     240411 734  0.3+  0.3+    240412 033  0.1-  0.2+
240410 V06  0.0   0.0     240411 734  0.1+  0.4-    240412 033  0.0   0.1+
240410 V06  0.2-  0.1+    240411 H01  0.0   0.0     240412 204  0.3+  0.2-

Ephemeris:
2024 GE4                 a,e,i = 1.39, 0.33, 6                   q = 0.9335
Date    TT    R. A. (2000) Decl.     Delta      r    Elong.  Phase     V
2024 03 13    14 12 55.6 +13 16 34   0.2466  1.1913   139.1    33.1    23.4
...
2024 03 28    15 01 38.9 +15 18 59   0.1547  1.1174   137.7    37.0    22.4
...
2024 04 05    15 47 23.8 +16 03 40   0.1135  1.0801   132.3    43.2    21.8
...
2024 04 11    16 43 11.1 +15 42 19   0.08771 1.0536   124.0    52.1    21.4
2024 04 12    16 55 13.7 +15 28 18   0.08405 1.0494   122.0    54.1    21.4
2024 04 13    17 08 12.4 +15 09 46   0.08062 1.0452   119.9    56.3    21.3
...
2024 04 19    18 45 55.2 +11 09 03   0.06652 1.0211   102.8    73.6    21.4
...
2024 04 27    21 12 09.2 +01 16 37   0.07097 0.9925    76.6    99.4    22.5
...
2024 05 12    23 38 17.0 -08 17 31   0.1282  0.9523    59.9   113.5    24.5

A. U. Tomatic                (C) Copyright 2024 MPC           M.P.E.C. 2024-G170





More information about the Iaude mailing list